Location: Unspecified
(0.0000°N, 0.0000°E)
Time: 10:30:15
(UTC+00:00)

Vanguard 3 - Pass Details

Date: 26 September 2023
Orbit: 507 x 3241 km, 33.3° (Epoch: 06 December)

Event Time Altitude Azimuth Distance (km) Brightness Sun altitude
Rises 04:29:04 0° 286° (WNW) 2,969 - -20.6°
Reaches altitude 10° 04:31:08 10° 277° (W) 2,242 - -20.1°
Exits shadow 04:34:04 31° 248° (WSW) 1,497 8.0 -19.4°
Maximum altitude 04:36:00 40° 208° (SSW) 1,431 8.1 -18.9°
Drops below altitude 10° 04:44:01 10° 141° (SE) 3,694 11.0 -16.9°
Sets 04:48:24 0° 135° (SE) 5,178 12.0 -15.8°
